When you browse on this site, cookies collect data to enhance your experience and personalize the content and advertising you see.
Visit our Privacy Policy to learn more. By continuing to use the site, you agree to this use of cookies and data.
  • In Schweiz
  • Länderverzeichnis
  • Für 7 Tage
  • Wassertemperatur
  • Wetterkarte
  • Widgets
  • user-avatar
    Anmelden

    Stündliche Wetter Linz

    Heute, 17 September, Dienstag

    Zeit Temperatur Niederschläge Wind Luftdruck Luftfeuchtigkeit
    00:00 +19°C° 0.1 mm 1 m/S 735 mmHg 89%
    01:00 +18°C° 0 mm 2 m/S 734 mmHg 90%
    02:00 +18°C° 0 mm 2 m/S 734 mmHg 90%
    03:00 +17°C° 0 mm 2 m/S 734 mmHg 90%
    04:00 +17°C° 0 mm 2 m/S 733 mmHg 90%
    05:00 +17°C° 0 mm 2 m/S 734 mmHg 89%
    06:00 +17°C° 0 mm 2 m/S 734 mmHg 88%
    07:00 +17°C° 0 mm 2 m/S 734 mmHg 88%
    08:00 +18°C° 0 mm 2 m/S 734 mmHg 84%
    09:00 +18°C° 0 mm 3 m/S 734 mmHg 81%
    10:00 +19°C° 0 mm 4 m/S 734 mmHg 77%
    11:00 +19°C° 0 mm 4 m/S 734 mmHg 77%
    12:00 +19°C° 0 mm 4 m/S 733 mmHg 76%
    13:00 +19°C° 0 mm 4 m/S 733 mmHg 75%
    14:00 +20°C° 0 mm 5 m/S 733 mmHg 74%
    15:00 +20°C° 0 mm 5 m/S 733 mmHg 73%
    16:00 +20°C° 0 mm 5 m/S 733 mmHg 72%
    17:00 +19°C° 0.1 mm 5 m/S 733 mmHg 76%
    18:00 +18°C° 0.1 mm 4 m/S 733 mmHg 79%
    19:00 +17°C° 0.1 mm 4 m/S 733 mmHg 83%
    20:00 +15°C° 0.1 mm 4 m/S 734 mmHg 83%
    21:00 +14°C° 0.1 mm 3 m/S 734 mmHg 83%
    22:00 +13°C° 0.1 mm 3 m/S 735 mmHg 82%
    23:00 +12°C° 0 mm 3 m/S 735 mmHg 84%

    Morgen, 18 September, Mittwoch

    Zeit Temperatur Niederschläge Wind Luftdruck Luftfeuchtigkeit
    00:00 +11°C° 0 mm 3 m/S 736 mmHg 85%
    01:00 +10°C° 0 mm 2 m/S 736 mmHg 86%
    02:00 +10°C° 0 mm 2 m/S 736 mmHg 86%
    03:00 +9°C° 0 mm 2 m/S 736 mmHg 86%
    04:00 +8°C° 0 mm 2 m/S 737 mmHg 85%
    05:00 +8°C° 0 mm 2 m/S 737 mmHg 84%
    06:00 +8°C° 0 mm 2 m/S 738 mmHg 82%
    07:00 +9°C° 0 mm 1 m/S 738 mmHg 80%
    08:00 +10°C° 0 mm 2 m/S 738 mmHg 71%
    09:00 +13°C° 0 mm 2 m/S 739 mmHg 63%
    10:00 +14°C° 0 mm 2 m/S 739 mmHg 54%
    11:00 +15°C° 0 mm 2 m/S 739 mmHg 50%
    12:00 +16°C° 0 mm 2 m/S 738 mmHg 46%
    13:00 +17°C° 0 mm 2 m/S 738 mmHg 42%
    14:00 +17°C° 0 mm 2 m/S 738 mmHg 43%
    15:00 +17°C° 0 mm 2 m/S 738 mmHg 45%
    16:00 +16°C° 0 mm 2 m/S 737 mmHg 47%
    17:00 +14°C° 0 mm 1 m/S 738 mmHg 54%
    18:00 +12°C° 0 mm 1 m/S 738 mmHg 62%
    19:00 +10°C° 0 mm 1 m/S 738 mmHg 70%
    20:00 +10°C° 0 mm 1 m/S 738 mmHg 71%
    21:00 +9°C° 0 mm 1 m/S 739 mmHg 73%
    22:00 +9°C° 0 mm 1 m/S 739 mmHg 75%
    23:00 +8°C° 0 mm 1 m/S 739 mmHg 77%

    übermorgen, 19 September, Donnerstag

    Zeit Temperatur Niederschläge Wind Luftdruck Luftfeuchtigkeit
    00:00 +8°C° 0 mm 1 m/S 739 mmHg 79%
    01:00 +6°C° 0 mm 0 m/S 739 mmHg 81%
    02:00 +6°C° 0 mm 0 m/S 739 mmHg 83%
    03:00 +6°C° 0 mm 0 m/S 739 mmHg 84%
    04:00 +5°C° 0 mm 0 m/S 739 mmHg 86%
    05:00 +6°C° 0 mm 0 m/S 740 mmHg 84%
    06:00 +7°C° 0 mm 0 m/S 740 mmHg 81%
    07:00 +7°C° 0 mm 0 m/S 740 mmHg 79%
    08:00 +9°C° 0 mm 0 m/S 740 mmHg 73%
    09:00 +11°C° 0 mm 0 m/S 741 mmHg 67%
    10:00 +14°C° 0 mm 1 m/S 741 mmHg 61%
    11:00 +15°C° 0 mm 1 m/S 741 mmHg 58%
    12:00 +16°C° 0 mm 1 m/S 741 mmHg 54%
    13:00 +16°C° 0 mm 1 m/S 740 mmHg 51%
    14:00 +16°C° 0 mm 1 m/S 740 mmHg 50%
    15:00 +16°C° 0 mm 1 m/S 740 mmHg 50%
    16:00 +16°C° 0 mm 1 m/S 740 mmHg 49%
    17:00 +14°C° 0 mm 1 m/S 740 mmHg 56%
    18:00 +12°C° 0 mm 1 m/S 741 mmHg 63%
    19:00 +10°C° 0 mm 1 m/S 741 mmHg 70%
    20:00 +9°C° 0 mm 1 m/S 741 mmHg 72%
    21:00 +8°C° 0 mm 1 m/S 742 mmHg 74%
    22:00 +8°C° 0 mm 1 m/S 742 mmHg 76%
    23:00 +7°C° 0 mm 1 m/S 742 mmHg 77%

    20 September, Freitag

    Zeit Temperatur Niederschläge Wind Luftdruck Luftfeuchtigkeit
    00:00 +7°C° 0 mm 1 m/S 742 mmHg 79%
    01:00 +6°C° 0 mm 1 m/S 742 mmHg 81%
    02:00 +6°C° 0 mm 1 m/S 742 mmHg 82%
    03:00 +6°C° 0 mm 1 m/S 742 mmHg 83%
    04:00 +5°C° 0 mm 1 m/S 742 mmHg 85%
    05:00 +6°C° 0 mm 1 m/S 742 mmHg 82%
    06:00 +6°C° 0 mm 0 m/S 741 mmHg 80%
    07:00 +6°C° 0 mm 0 m/S 741 mmHg 77%
    08:00 +10°C° 0 mm 1 m/S 741 mmHg 70%
    09:00 +12°C° 0 mm 1 m/S 742 mmHg 63%
    10:00 +14°C° 0 mm 1 m/S 742 mmHg 55%
    11:00 +15°C° 0 mm 1 m/S 741 mmHg 52%
    12:00 +16°C° 0 mm 2 m/S 741 mmHg 48%
    13:00 +17°C° 0 mm 2 m/S 740 mmHg 44%
    14:00 +17°C° 0 mm 2 m/S 740 mmHg 45%
    15:00 +17°C° 0 mm 2 m/S 740 mmHg 47%
    16:00 +17°C° 0 mm 2 m/S 739 mmHg 48%
    17:00 +15°C° 0 mm 2 m/S 740 mmHg 54%
    18:00 +12°C° 0 mm 1 m/S 740 mmHg 60%
    19:00 +10°C° 0 mm 1 m/S 740 mmHg 66%
    20:00 +10°C° 0 mm 1 m/S 740 mmHg 68%
    21:00 +9°C° 0 mm 1 m/S 740 mmHg 70%
    22:00 +8°C° 0 mm 2 m/S 740 mmHg 71%
    23:00 +7°C° 0 mm 2 m/S 740 mmHg 73%

    21 September, Samstag

    Zeit Temperatur Niederschläge Wind Luftdruck Luftfeuchtigkeit
    00:00 +7°C° 0 mm 2 m/S 740 mmHg 75%
    01:00 +7°C° 0 mm 2 m/S 740 mmHg 77%
    02:00 +6°C° 0 mm 2 m/S 740 mmHg 79%
    03:00 +6°C° 0 mm 2 m/S 740 mmHg 80%
    04:00 +6°C° 0 mm 2 m/S 740 mmHg 82%
    05:00 +6°C° 0 mm 2 m/S 740 mmHg 81%
    06:00 +7°C° 0 mm 2 m/S 739 mmHg 79%
    07:00 +7°C° 0 mm 2 m/S 739 mmHg 78%
    08:00 +10°C° 0 mm 2 m/S 739 mmHg 71%
    09:00 +12°C° 0 mm 3 m/S 739 mmHg 64%
    10:00 +14°C° 0 mm 4 m/S 739 mmHg 57%
    11:00 +17°C° 0 mm 4 m/S 739 mmHg 55%
    12:00 +18°C° 0 mm 4 m/S 738 mmHg 53%
    13:00 +19°C° 0 mm 4 m/S 738 mmHg 51%
    14:00 +19°C° 0 mm 4 m/S 738 mmHg 52%
    15:00 +19°C° 0 mm 4 m/S 737 mmHg 53%
    16:00 +19°C° 0 mm 4 m/S 737 mmHg 54%
    17:00 +17°C° 0 mm 4 m/S 737 mmHg 58%
    18:00 +14°C° 0 mm 3 m/S 737 mmHg 62%
    19:00 +12°C° 0 mm 3 m/S 737 mmHg 66%
    20:00 +12°C° 0 mm 2 m/S 738 mmHg 68%
    21:00 +12°C° 0 mm 2 m/S 738 mmHg 69%
    22:00 +10°C° 0 mm 2 m/S 738 mmHg 71%
    23:00 +9°C° 0 mm 2 m/S 738 mmHg 72%

    22 September, Sonntag

    Zeit Temperatur Niederschläge Wind Luftdruck Luftfeuchtigkeit
    00:00 +9°C° 0 mm 2 m/S 738 mmHg 74%
    01:00 +8°C° 0 mm 2 m/S 738 mmHg 76%
    02:00 +8°C° 0 mm 2 m/S 738 mmHg 77%
    03:00 +8°C° 0 mm 2 m/S 738 mmHg 77%
    04:00 +7°C° 0 mm 2 m/S 738 mmHg 78%
    05:00 +9°C° 0 mm 1 m/S 737 mmHg 77%
    06:00 +9°C° 0 mm 1 m/S 737 mmHg 77%
    07:00 +10°C° 0 mm 1 m/S 737 mmHg 76%
    08:00 +12°C° 0 mm 2 m/S 737 mmHg 69%
    09:00 +15°C° 0 mm 2 m/S 737 mmHg 62%
    10:00 +17°C° 0 mm 3 m/S 738 mmHg 56%
    11:00 +19°C° 0 mm 3 m/S 737 mmHg 53%
    12:00 +21°C° 0 mm 3 m/S 737 mmHg 51%
    13:00 +22°C° 0 mm 3 m/S 737 mmHg 49%
    14:00 +22°C° 0 mm 3 m/S 736 mmHg 51%
    15:00 +22°C° 0 mm 3 m/S 736 mmHg 53%
    16:00 +24°C° 0 mm 2 m/S 736 mmHg 55%
    17:00 +20°C° 0 mm 2 m/S 736 mmHg 60%
    18:00 +18°C° 0 mm 2 m/S 737 mmHg 65%
    19:00 +16°C° 0 mm 2 m/S 737 mmHg 70%
    20:00 +15°C° 0 mm 2 m/S 737 mmHg 73%
    21:00 +14°C° 0 mm 1 m/S 737 mmHg 76%
    22:00 +13°C° 0 mm 1 m/S 738 mmHg 79%
    23:00 +12°C° 0 mm 1 m/S 738 mmHg 80%
    Mehr zeigen